Location: Unspecified
(50.7693°N, 0.0000°E)
Time: 16:23:46
(UTC+00:00)

Vanguard 2 - Pass Details

Date: 25 June 2019
Orbit: 553 x 2938 km, 32.9° (Epoch: 16 July)

Event Time Altitude Azimuth Distance (km) Brightness Sun altitude
Rises 08:46:01 0° 227° (SW) 3,150 10.5 43.4°
Reaches altitude 10° 08:49:02 10° 205° (SSW) 2,491 10.2 43.9°
Maximum altitude 08:52:36 16° 167° (SSE) 2,403 10.6 44.4°
Drops below altitude 10° 08:57:09 10° 132° (SE) 3,319 11.7 45.1°
Sets 09:02:11 0° 114° (ESE) 4,827 12.3 45.8°
